Location: Biltmore Gardens
(41.6070°N, 83.4666°W)
Time: 14:21:18
(UTC+00:00)

Abrixas rocket - Pass Details

Date: 14 July 2020
Orbit: 339 x 347 km, 48.4° (Epoch: 04 August)

Event Time Altitude Azimuth Distance (km) Brightness Sun altitude
Exits shadow 07:38:49 12° 316° (NW) 1,195 4.7 -21.1°
Maximum altitude 07:41:04 26° 14° (NNE) 707 4.1 -20.8°
Drops below altitude 10° 07:43:35 10° 75° (ENE) 1,285 5.3 -20.6°
Sets 07:45:45 0° 88° (E) 2,119 6.3 -20.4°
